[[{"header":{"parameterUnit":"m.s-1","parameterCategory":1,"la1":30.2991,"la2":30.254,"lo1":-89.0895,"lo2":-89.0444,"dy":0.0017,"dx":0.0017,"nx":28,"ny":28,"refTime":"2025-09-01T09:00:00:Z","depth":0,"parameterNumber":2,"parameterNumberName":"U-component_of_WINDS"},"data":[0,0,0,0,0,0,0,0,0,0,0,0,0,0,0,0,0,0,0,0,0,0,0,0,0,0,0,0,0,0,0,0,0,0,0,0,0,0,0,0,0,0,0,0,0,0,0,0,0,0,0,0,0,0,0,0,0,0,-1.8336,-1.8337,0,-1.846,-1.8462,-1.8463,-1.8401,-1.8398,-1.8394,-1.8391,-1.8522,-1.8529,-1.8535,0,0,0,0,0,0,0,0,0,0,0,0,0,-1.8049,-1.8054,-1.8336,-1.8337,-1.8339,-1.846,-1.8462,-1.8463,-1.8401,-1.8397,-1.8394,-1.839,-1.852,-1.8528,-1.8536,0,0,0,0,0,0,0,0,0,0,0,0,0,-1.8173,-1.8056,-1.8335,-1.8322,-1.8322,-1.846,-1.8462,-1.8464,-1.8402,-1.8397,-1.8392,-1.8388,-1.8518,-1.8527,-1.8537,-1.8695,0,0,-1.8567,-1.8571,0,0,0,0,0,0,0,0,-1.8166,-1.8184,-1.8323,-1.8324,-1.8324,-1.841,-1.8408,-1.8541,-1.8404,-1.8372,-1.8391,-1.8386,-1.8489,-1.8501,-1.8535,-1.8701,-1.8707,-1.8568,-1.8574,-1.8578,-1.8581,0,0,0,0,0,0,0,-1.8158,-1.8178,-1.8385,-1.8325,-1.8326,-1.8312,-1.8324,-1.8433,-1.8457,-1.8374,-1.837,-1.8386,-1.8489,-1.8526,-1.8538,-1.8709,-1.8567,-1.8576,-1.8582,-1.8586,-1.9013,-1.9018,0,0,0,0,0,0,-1.8149,-1.8171,-1.8381,-1.8389,-1.8231,-1.8321,-1.8335,-1.8387,-1.8455,-1.8461,-1.839,-1.8382,-1.8512,-1.8527,-1.8542,-1.8734,-1.8578,-1.8587,-1.8593,-1.9008,-1.9014,-1.902,0,0,0,0,0,0,-1.8143,-1.8168,-1.8376,-1.8279,-1.8304,-1.8331,-1.8391,-1.8392,-1.8429,-1.8467,-1.8471,-1.8423,-1.8508,-1.8528,-1.8658,-1.8737,-1.8591,-1.86,-1.9001,-1.901,-1.9017,-1.9116,0,0,0,0,0,0,-1.8135,-1.8167,-1.8226,-1.8281,-1.831,-1.8488,-1.8395,-1.8398,-1.8446,-1.8438,-1.8499,-1.8505,-1.8506,-1.8644,-1.8668,-1.8748,-1.8608,-1.8994,-1.9005,-1.9015,-1.9106,-1.9127,-1.9145,0,0,0,0,0,-1.8125,-1.8249,-1.8229,-1.8255,-1.8384,-1.8493,-1.851,-1.8507,-1.8453,-1.8513,-1.8538,-1.8503,-1.8724,-1.8657,-1.8684,-1.8768,-1.8989,-1.9002,-1.9014,-1.9098,-1.9123,-1.9144,0,0,0,0,0,0,-1.8204,-1.8256,-1.8235,-1.838,-1.8432,-1.8482,-1.8559,-1.8534,-1.8604,-1.8594,-1.8589,-1.8603,-1.8738,-1.8766,-1.869,-1.8926,-1.8849,-1.8867,-1.8903,-1.8927,-1.8946,-1.8938,-1.8616,0,0,0,0,0,-1.8238,-1.8321,-1.8362,-1.8486,-1.8514,-1.8532,-1.8579,-1.8573,-1.8628,-1.865,-1.8683,-1.8739,-1.8821,-1.8876,-1.8953,-1.911,-1.9123,-1.9181,-1.92,-1.9216,-1.9232,-1.9319,-1.9346,-1.9061,-1.9061,-1.9061,0,0,-1.831,-1.8348,-1.8401,-1.8503,-1.8543,-1.8631,-1.8551,-1.8647,-1.8712,-1.8665,-1.8789,-1.8816,-1.8878,-1.9022,-1.9087,-1.905,-1.9314,-1.9232,-1.9244,-1.9252,-1.9335,-1.9362,-1.9386,-1.9069,-1.9068,-1.9066,0,0,-1.8485,-1.8522,-1.863,-1.8672,-1.8733,-1.8745,-1.8771,-1.8825,-1.8841,-1.8965,-1.8932,-1.9011,-1.9152,-1.9198,-1.924,-1.9434,-1.9406,-1.946,-1.9561,-1.9646,-1.9668,-1.9688,-1.9759,-1.9785,-1.9475,-1.9476,-1.9476,0,-1.8567,-1.8696,-1.8689,-1.8788,-1.8835,-1.8795,-1.8906,-1.8947,-1.9031,-1.9065,-1.9022,-1.9199,-1.9238,-1.9393,-1.9441,-1.9475,-1.9507,-1.9453,-1.9665,-1.9685,-1.9704,-1.9772,-1.9798,-1.9482,-1.9481,-1.9481,-1.948,0,-1.8794,-1.8884,-1.8965,-1.9046,-1.9102,-1.9206,-1.9217,-1.9275,-1.9264,-1.9281,-1.9409,-1.9454,-1.9541,-1.9577,-1.9568,-1.9732,-1.9707,-1.9665,-1.9587,-1.9737,-1.9801,-1.9827,-1.9491,-1.9489,-1.9487,-1.9485,0,0,-1.9023,-1.91,-1.913,-1.9167,-1.9232,-1.9303,-1.9406,-1.949,-1.954,-1.96,-1.9688,-1.9809,-1.977,-1.9818,-1.9813,-1.9888,-2.0041,-1.9836,-1.9838,-1.9874,-2.0228,-2.0261,-2.0291,-2.0022,-2.0027,-2.0031,-2.0223,0,-1.9204,-1.9383,-1.9381,-1.9548,-1.9633,-1.9597,-1.9687,-1.9738,-1.9757,-1.9832,-1.9853,-1.994,-1.9881,-1.991,-1.9982,-2.0007,-2.0113,-1.9993,-2.0106,-2.011,-2.0093,-2.0324,-2.0358,-2.0537,-2.0248,-2.0252,-2.0255,0,-1.9439,-1.9506,-1.9682,-1.9736,-1.9771,-1.9852,-1.993,-2.0002,-2.006,-2.0068,-2.0122,-2.0107,-2.0214,-2.0132,-2.0281,-2.02,-2.0246,-2.0266,-2.0273,-2.0284,-2.0193,-2.0343,-2.0594,-2.0622,-2.0294,-2.0291,-2.0288,0,-1.9591,-1.9725,-1.9847,-1.988,-1.9946,-2.0004,-2.0035,-2.0088,-2.0139,-2.0207,-2.0241,-2.0321,-2.0366,-2.0429,-2.0437,-2.0376,-2.0587,-2.0506,-2.0599,-2.0599,-2.0646,-2.0643,-2.091,-2.0674,-2.0673,-2.0673,-2.0672,0,-1.9794,-1.9903,-1.9916,-1.9992,-2.0114,-2.0111,-2.0232,-2.0258,-2.0305,-2.0387,-2.0361,-2.0438,-2.0442,-2.0522,-2.0528,-2.0652,-2.0672,-2.0683,-2.0684,-2.0687,-2.0685,-2.0718,-2.0706,-2.068,-2.0678,-2.0677,-2.0676,0,-1.9984,-1.9997,-2.0129,-2.018,-2.0196,-2.0284,-2.0329,-2.0402,-2.0418,-2.0522,-2.0546,-2.0572,-2.0665,-2.0678,-2.0787,-2.0791,-2.094,-2.0927,-2.0921,-2.0919,-2.1013,-2.1005,-2.1311,-2.1351,-2.1087,-2.1089,-2.1092,0,-2.0114,-2.0197,-2.0258,-2.031,-2.0343,-2.0428,-2.048,-2.048,-2.0536,-2.0609,-2.0674,-2.0764,-2.0836,-2.0987,-2.1016,-2.11,-2.109,-2.1191,-2.1102,-2.1103,-2.1094,-2.1089,-2.1099,-2.1209,-2.1212,-2.1214,-2.1216,0,-2.0343,-2.0346,-2.0421,-2.05,-2.0563,-2.0625,-2.0683,-2.0728,-2.0736,-2.0801,-2.0895,-2.0951,-2.1062,-2.1153,-2.1236,-2.1269,-2.1246,-2.1244,-2.127,-2.1274,-2.1268,-2.1275,-2.0969,-2.1237,-2.1235,-2.1233,-2.1232,-2.1231,-2.0508,-2.0581,-2.0636,-2.0721,-2.0765,-2.0821,-2.0893,-2.0918,-2.0996,-2.1086,-2.1082,-2.1186,-2.1244,-2.1352,-2.1392,-2.1474,-2.1441,-2.1479,-2.1489,-2.1499,-2.1509,-2.1253,-2.1489,-2.1489,-2.1488,-2.1488,-2.1487,0,-2.0738,-2.0771,-2.085,-2.0932,-2.1001,-2.0971,-2.1034,-2.1094,-2.1185,-2.124,-2.1312,-2.1421,-2.1509,-2.1546,-2.1633,-2.1692,-2.1684,-2.1715,-2.1712,-2.172,-2.1532,-2.1502,-2.1721,-2.1721,-2.1721,-2.1721,-2.1721,-2.1721,-2.0865,-2.0988,-2.0997,-2.1142,-2.1175,-2.1276,-2.1315,-2.1367,-2.1411,-2.1534,-2.1607,-2.1629,-2.1678,-2.1768,-2.1849,-2.1857,-2.1892,-2.1928,-2.1933,-2.1757,-2.1733,-2.1711,-2.1682,-2.1935,-2.1936,-2.2114,-2.2115,-2.2117]},{"header":{"parameterUnit":"m.s-1","parameterCategory":1,"la1":30.2991,"la2":30.254,"lo1":-89.0895,"lo2":-89.0444,"dy":0.0017,"dx":0.0017,"nx":28,"ny":28,"refTime":"2025-09-01T09:00:00:Z","depth":0,"parameterNumber":3,"parameterNumberName":"V-component_of_WINDS"},"data":[0,0,0,0,0,0,0,0,0,0,0,0,0,0,0,0,0,0,0,0,0,0,0,0,0,0,0,0,0,0,0,0,0,0,0,0,0,0,0,0,0,0,0,0,0,0,0,0,0,0,0,0,0,0,0,0,0,0,-1.8536,-1.8536,0,-1.8564,-1.8564,-1.8565,-1.8544,-1.8543,-1.8542,-1.8541,-1.8569,-1.8571,-1.8572,0,0,0,0,0,0,0,0,0,0,0,0,0,-1.8464,-1.8466,-1.8536,-1.8536,-1.8537,-1.8564,-1.8564,-1.8565,-1.8544,-1.8543,-1.8542,-1.8541,-1.8569,-1.857,-1.8572,0,0,0,0,0,0,0,0,0,0,0,0,0,-1.8494,-1.8466,-1.8536,-1.853,-1.853,-1.8564,-1.8564,-1.8565,-1.8544,-1.8543,-1.8542,-1.854,-1.8568,-1.857,-1.8573,-1.8614,0,0,-1.858,-1.8581,0,0,0,0,0,0,0,0,-1.8492,-1.8497,-1.853,-1.853,-1.853,-1.8549,-1.8549,-1.8581,-1.8545,-1.8539,-1.8541,-1.854,-1.8564,-1.8566,-1.8574,-1.8616,-1.8617,-1.858,-1.8581,-1.8583,-1.8583,0,0,0,0,0,0,0,-1.849,-1.8495,-1.8547,-1.8531,-1.8531,-1.8525,-1.8528,-1.8555,-1.8558,-1.8539,-1.8538,-1.8541,-1.8563,-1.8572,-1.8575,-1.8617,-1.858,-1.8582,-1.8584,-1.8584,-1.8693,-1.8694,0,0,0,0,0,0,-1.8489,-1.8494,-1.8546,-1.8548,-1.8508,-1.8528,-1.8531,-1.8544,-1.8558,-1.8559,-1.8542,-1.854,-1.8569,-1.8572,-1.8576,-1.8625,-1.8582,-1.8585,-1.8586,-1.8691,-1.8693,-1.8695,0,0,0,0,0,0,-1.8488,-1.8494,-1.8545,-1.852,-1.8527,-1.853,-1.8546,-1.8546,-1.8554,-1.856,-1.8561,-1.8551,-1.8568,-1.8572,-1.8605,-1.8625,-1.8586,-1.8588,-1.869,-1.8692,-1.8694,-1.8723,0,0,0,0,0,0,-1.8486,-1.8493,-1.851,-1.8521,-1.8528,-1.8574,-1.8547,-1.8547,-1.8559,-1.8556,-1.8569,-1.8569,-1.8567,-1.8601,-1.8607,-1.8628,-1.859,-1.8688,-1.8691,-1.8693,-1.8721,-1.8726,-1.8731,0,0,0,0,0,-1.8483,-1.8517,-1.8511,-1.8517,-1.8548,-1.8575,-1.8579,-1.8576,-1.856,-1.8576,-1.858,-1.8569,-1.8622,-1.8605,-1.8611,-1.8633,-1.8687,-1.869,-1.8693,-1.8718,-1.8725,-1.8731,0,0,0,0,0,0,-1.8508,-1.8518,-1.8511,-1.855,-1.8562,-1.8572,-1.8592,-1.8584,-1.86,-1.8597,-1.8592,-1.8595,-1.8629,-1.8634,-1.8614,-1.8673,-1.8652,-1.8657,-1.8669,-1.8675,-1.8681,-1.8679,-1.8592,0,0,0,0,0,-1.8518,-1.8539,-1.8547,-1.858,-1.8587,-1.8588,-1.86,-1.8596,-1.8608,-1.8613,-1.8619,-1.8631,-1.865,-1.8663,-1.8681,-1.8721,-1.8723,-1.8739,-1.8745,-1.8749,-1.8753,-1.8774,-1.8781,-1.8706,-1.8706,-1.8705,0,0,-1.8539,-1.8547,-1.8561,-1.8585,-1.8594,-1.8616,-1.8593,-1.8617,-1.8633,-1.8617,-1.8647,-1.8652,-1.8665,-1.8701,-1.8717,-1.8707,-1.8774,-1.8753,-1.8757,-1.8758,-1.8778,-1.8785,-1.8791,-1.8708,-1.8707,-1.8707,0,0,-1.8588,-1.8596,-1.8625,-1.8634,-1.8647,-1.8648,-1.8655,-1.8666,-1.8669,-1.8699,-1.8688,-1.8706,-1.874,-1.8749,-1.8758,-1.881,-1.88,-1.8816,-1.8844,-1.8864,-1.887,-1.8875,-1.8893,-1.89,-1.882,-1.882,-1.882,0,-1.8612,-1.8644,-1.864,-1.8665,-1.8676,-1.8663,-1.8691,-1.87,-1.8719,-1.8726,-1.8714,-1.8755,-1.8763,-1.8801,-1.8813,-1.8821,-1.8828,-1.8815,-1.887,-1.8875,-1.888,-1.8897,-1.8903,-1.8822,-1.8822,-1.8822,-1.8822,0,-1.8673,-1.8696,-1.8717,-1.8735,-1.8748,-1.8775,-1.8774,-1.8788,-1.8783,-1.8785,-1.8816,-1.8825,-1.8844,-1.8853,-1.8849,-1.889,-1.8883,-1.887,-1.8848,-1.8889,-1.8904,-1.8911,-1.8825,-1.8824,-1.8823,-1.8823,0,0,-1.8739,-1.8754,-1.8762,-1.8769,-1.8783,-1.88,-1.8826,-1.8845,-1.8856,-1.887,-1.889,-1.8919,-1.8907,-1.8917,-1.8914,-1.8932,-1.8971,-1.8917,-1.8917,-1.8926,-1.9017,-1.9026,-1.9033,-1.8965,-1.8966,-1.8967,-1.9015,0,-1.8788,-1.8832,-1.8829,-1.8871,-1.8891,-1.8879,-1.8901,-1.8911,-1.8913,-1.8931,-1.8933,-1.8953,-1.8936,-1.8943,-1.896,-1.8963,-1.8989,-1.8959,-1.8984,-1.8985,-1.8981,-1.9042,-1.9052,-1.9097,-1.9022,-1.9023,-1.9023,0,-1.8851,-1.8866,-1.891,-1.892,-1.8929,-1.8949,-1.8965,-1.8982,-1.8993,-1.8994,-1.9005,-1.8998,-1.9023,-1.9001,-1.9035,-1.9015,-1.9025,-1.9028,-1.9029,-1.9031,-1.9006,-1.9045,-1.9111,-1.9118,-1.9033,-1.9032,-1.9032,0,-1.8894,-1.8926,-1.8956,-1.8963,-1.8975,-1.8989,-1.8995,-1.9005,-1.9016,-1.9031,-1.9038,-1.9055,-1.9065,-1.9078,-1.9076,-1.906,-1.911,-1.9088,-1.9111,-1.9111,-1.9122,-1.9122,-1.9191,-1.9129,-1.9129,-1.9129,-1.9129,0,-1.8949,-1.8976,-1.8975,-1.8993,-1.9023,-1.9019,-1.9049,-1.9053,-1.9061,-1.908,-1.907,-1.9088,-1.9084,-1.9102,-1.91,-1.9128,-1.9133,-1.9133,-1.9133,-1.9134,-1.9134,-1.914,-1.9137,-1.9131,-1.913,-1.913,-1.913,0,-1.9002,-1.9002,-1.9034,-1.9043,-1.9046,-1.9067,-1.9075,-1.9092,-1.9093,-1.9117,-1.9122,-1.9124,-1.9144,-1.9143,-1.9166,-1.9165,-1.92,-1.9195,-1.9196,-1.9195,-1.9218,-1.9216,-1.9293,-1.9303,-1.9235,-1.9236,-1.9237,0,-1.9037,-1.9058,-1.9069,-1.908,-1.9087,-1.9106,-1.9118,-1.9114,-1.9126,-1.914,-1.9156,-1.9175,-1.919,-1.9222,-1.9226,-1.9243,-1.9239,-1.9265,-1.9241,-1.9242,-1.9238,-1.9237,-1.9239,-1.9269,-1.927,-1.927,-1.9271,0,-1.9099,-1.9098,-1.9115,-1.9132,-1.9145,-1.9158,-1.917,-1.9181,-1.9178,-1.9192,-1.9213,-1.9224,-1.9247,-1.9266,-1.9282,-1.9288,-1.9279,-1.9278,-1.9284,-1.9286,-1.9285,-1.9286,-1.9208,-1.9277,-1.9276,-1.9276,-1.9275,-1.9275,-1.9144,-1.9161,-1.9171,-1.919,-1.9199,-1.921,-1.9226,-1.9229,-1.9246,-1.9265,-1.9262,-1.9284,-1.9294,-1.9315,-1.9322,-1.934,-1.933,-1.9339,-1.9342,-1.9344,-1.9346,-1.9283,-1.9343,-1.9342,-1.9342,-1.9342,-1.9342,0,-1.9205,-1.921,-1.9228,-1.9245,-1.9259,-1.925,-1.9262,-1.9275,-1.9295,-1.9305,-1.932,-1.9343,-1.9361,-1.9366,-1.9383,-1.9396,-1.9393,-1.9401,-1.94,-1.9401,-1.9354,-1.9346,-1.9404,-1.9403,-1.9403,-1.9403,-1.9403,-1.9403,-1.9238,-1.9267,-1.9267,-1.9299,-1.9305,-1.9327,-1.9335,-1.9345,-1.9353,-1.9379,-1.9394,-1.9397,-1.9405,-1.9422,-1.9438,-1.9439,-1.9446,-1.9456,-1.9455,-1.9411,-1.9404,-1.9399,-1.9392,-1.9457,-1.9457,-1.9501,-1.9501,-1.9501]}]]